Location: Columbus
(35.2256°N, 82.1549°W)
Time: 16:41:58
(UTC-05:00)

ISS - Pass Details

Date: 08 December 2021
Orbit: 414 x 422 km, 51.6° (Epoch: 16 January)

Event Time Altitude Azimuth Distance (km) Brightness Sun altitude
Rises 18:20:18 0° 310° (NW) 2,365 0.5 -12.8°
Maximum altitude 18:25:45 70° 224° (SW) 447 -3.5 -13.9°
Drops below altitude 10° 18:29:04 10° 141° (SE) 1,484 -1.2 -14.5°
Enters shadow 18:29:56 - 139° (SE) 1,840 -0.7 -14.7°
